Weather History for MMMX - November, 2012

Change the Weather History Date:

Monday, November 12, 2012

  Actual Average (WUND) Record (WUND)
Temperature  
Mean Temperature 62 °F -  
Max Temperature 73 °F 69 °F - (-1)
Min Temperature 51 °F 42 °F - (-1)
Degree Days  
Heating Degree Days 3    
Growing Degree Days 12 (Base 50)    
Moisture  
Dew Point 43 °F    
Average Humidity 55    
Maximum Humidity 82    
Minimum Humidity 23    
Precipitation  
Precipitation 0.00 in - - ()
Sea Level Pressure  
Sea Level Pressure 30.27 in    
Wind  
Wind Speed 5 mph ()    
Max Wind Speed 20 mph    
Max Gust Speed 31 mph    
Visibility 8.1 miles    
Events      
Averages and records for this station are not official NWS values.
T = Trace of Precipitation, MM = Missing Value Source: Averaged Metar Reports

Daily Weather History Graph

Daily Weather History Graph

Search for Another Location

Airport or City:

Trip Planner

Search our weather history database for the weather conditions in past years. The results will help you decide how hot, cold, wet, or windy it might be!

Date:

Astronomy

Nov. 12, 2012 Rise Set
Actual Time 6:42 AM CST 5:58 PM CST
Civil Twilight 6:19 AM CST 6:21 PM CST
Nautical Twilight 5:53 AM CST 6:47 PM CST
Astronomical Twilight 5:27 AM CST 7:13 PM CST
Moon 5:17 AM CST (11/12) 5:00 PM CST (11/12)
Length of Visible Light 12h 01m
Length of Day
11h 15m
Waning Crescent, 2% of the Moon is Illuminated
Nov 12
Waning Crescent
Nov 13
New
Nov 20
First Quarter
Nov 28
Full
Dec 6
Last Quarter

Hourly Weather History & Observations

Time (CST) Temp. Dew Point Humidity Pressure Visibility Wind Dir Wind Speed Gust Speed Precip Events Conditions
12:46 AM 59.0 °F 46.4 °F 63% 30.33 in 12.0 mi Calm Calm - N/A   Clear
1:47 AM 51.8 °F 46.4 °F 82% 30.34 in 10.0 mi ENE 3.5 mph - N/A   Clear
2:50 AM 55.4 °F 46.4 °F 72% 29.82 in 10.0 mi Calm Calm - N/A   Clear
3:47 AM 53.6 °F 46.4 °F 77% 30.34 in 8.0 mi East 5.8 mph - N/A   Clear
4:45 AM 51.8 °F 42.8 °F 71% 30.36 in 8.0 mi East 4.6 mph - N/A   Partly Cloudy
5:45 AM 51.8 °F 42.8 °F 71% 29.88 in 7.0 mi Calm Calm - N/A   Partly Cloudy
6:22 AM 53.6 °F 44.6 °F 72% 30.37 in 7.0 mi East 4.6 mph - N/A   Partly Cloudy
6:42 AM 53.6 °F 44.6 °F 72% 30.38 in 6.0 mi Calm Calm - N/A   Partly Cloudy
7:21 AM 51.8 °F 44.6 °F 76% 30.40 in 5.0 mi East 4.6 mph - N/A   Clear
7:41 AM 51.8 °F 44.6 °F 76% 30.41 in 5.0 mi ENE 4.6 mph - N/A   Clear
8:09 AM 55.4 °F 44.6 °F 67% 30.42 in 5.0 mi Calm Calm - N/A   Clear
8:21 AM 59.0 °F 42.8 °F 55% 30.42 in 5.0 mi Calm Calm - N/A   Partly Cloudy
8:24 AM 59.0 °F 42.8 °F 55% 30.42 in 5.0 mi Calm Calm - N/A   Partly Cloudy
8:42 AM 60.8 °F 42.8 °F 52% 29.93 in 5.0 mi Calm Calm - N/A   Partly Cloudy
9:17 AM 64.4 °F 42.8 °F 45% 30.42 in 5.0 mi Calm Calm - N/A   Clear
9:21 AM 64.4 °F 42.8 °F 45% 30.42 in 5.0 mi South 2.3 mph - N/A   Clear
9:45 AM 64.4 °F 42.8 °F 45% 30.42 in 5.0 mi NNW 4.6 mph - N/A   Clear
10:45 AM 68.0 °F 41.0 °F 37% 30.41 in 6.0 mi North 3.5 mph - N/A   Clear
10:49 AM 68.0 °F 39.2 °F 35% 30.41 in 6.0 mi NNW 6.9 mph - N/A   Clear
11:46 AM 69.8 °F 37.4 °F 31% 29.86 in 8.0 mi NNE 13.8 mph - N/A   Clear
12:44 PM 71.6 °F 41.0 °F 33% 30.35 in 8.0 mi North 11.5 mph - N/A   Clear
1:45 PM 73.4 °F 39.2 °F 29% 30.32 in 8.0 mi NNW 11.5 mph - N/A   Clear
2:43 PM 73.4 °F 33.8 °F 23% 29.81 in 8.0 mi NNE 16.1 mph 27.6 mph N/A   Mostly Cloudy
3:44 PM 69.8 °F 39.2 °F 33% 30.30 in 8.0 mi NNE 16.1 mph 27.6 mph N/A   Scattered Clouds
3:46 PM 69.8 °F 39.2 °F 33% 30.30 in 8.0 mi NE 16.1 mph 27.6 mph N/A   Scattered Clouds
4:45 PM 68.0 °F 41.0 °F 37% 30.32 in 8.0 mi NNE 19.6 mph 31.1 mph N/A   Partly Cloudy
5:25 PM 64.4 °F 41.0 °F 42% 30.35 in 8.0 mi North 19.6 mph 31.1 mph N/A   Partly Cloudy
5:45 PM 64.4 °F 41.0 °F 42% 29.93 in 8.0 mi North 15.0 mph 26.5 mph N/A   Scattered Clouds
6:45 PM 62.6 °F 44.6 °F 52% 30.37 in 10.0 mi North 16.1 mph - N/A   Scattered Clouds
7:44 PM 59.0 °F 46.4 °F 63% 30.41 in 10.0 mi North 18.4 mph - N/A   Mostly Cloudy
7:49 PM 59.0 °F 46.4 °F 63% 30.42 in 10.0 mi North 12.7 mph 24.2 mph N/A   Mostly Cloudy
8:43 PM 59.0 °F 48.2 °F 67% 30.00 in 12.0 mi North 13.8 mph 25.3 mph N/A   Mostly Cloudy
9:47 PM 57.2 °F 48.2 °F 72% 30.47 in 15.0 mi North 13.8 mph - N/A   Mostly Cloudy
10:45 PM 57.2 °F 46.4 °F 67% 30.47 in 15.0 mi North 11.5 mph - N/A   Mostly Cloudy
11:42 PM 57.2 °F 46.4 °F 67% 30.01 in 15.0 mi NNE 15.0 mph - N/A   Mostly Cloudy